Location: Hickory_CSC
(35.7330°N, 81.3330°W)
Time: 20:59:28
(UTC-04:00)

ISS - All Passes

Search period start: 21 April 2018 00:00
Search period end: 01 May 2018 00:00
Orbit: 403 x 406 km, 51.6° (Epoch: 22 April)

Date Brightness Start Highest point End Pass type
(mag) Time Alt. Az. Time Alt. Az. Time Alt. Az.
21 Apr - 09:20:48 10° SSW 09:23:55 44° SE 09:27:03 10° ENE daylight
21 Apr - 10:58:09 10° WNW 11:00:33 19° NNW 11:02:57 10° NNE daylight
21 Apr - 15:51:21 10° NNW 15:53:46 19° NNE 15:56:12 10° ENE daylight
21 Apr - 17:27:16 10° WNW 17:30:24 44° SW 17:33:32 10° SSE daylight
22 Apr - 08:29:18 10° S 08:31:49 21° SE 08:34:22 10° ENE daylight
22 Apr - 10:05:12 10° W 10:08:09 31° NW 10:11:07 10° NNE daylight
22 Apr - 14:59:50 10° N 15:01:17 12° NNE 15:02:46 10° NE daylight
22 Apr - 16:34:56 10° NW 16:38:13 82° NE 16:41:30 10° SE daylight
23 Apr - 07:39:36 10° SE 07:39:47 10° SE 07:39:58 10° ESE daylight
23 Apr - 09:12:37 10° WSW 09:15:51 61° NW 09:19:05 10° NE daylight
23 Apr - 10:52:03 10° NW 10:52:53 11° NNW 10:53:43 10° N daylight
23 Apr - 15:42:49 10° NW 15:45:56 39° NE 15:49:02 10° ESE daylight
23 Apr - 17:20:02 10° W 17:22:10 16° SW 17:24:18 10° S daylight
24 Apr - 08:20:24 10° SW 08:23:36 60° SE 08:26:50 10° NE daylight
24 Apr - 09:58:14 10° WNW 10:00:20 16° NNW 10:02:28 10° NNE daylight
24 Apr - 14:50:54 10° NNW 14:53:33 22° NNE 14:56:12 10° E daylight
24 Apr - 16:27:04 10° WNW 16:30:05 33° SW 16:33:04 10° SSE daylight
25 Apr - 07:28:39 10° S 07:31:26 27° SE 07:34:16 10° ENE daylight
25 Apr - 09:05:06 10° W 09:07:52 25° NNW 09:10:41 10° NNE daylight
25 Apr - 13:59:11 10° N 14:01:04 14° NNE 14:02:56 10° ENE daylight
25 Apr - 15:34:37 10° NW 15:37:53 76° SW 15:41:08 10° SE daylight
26 Apr - 06:37:43 10° SSE 06:39:21 13° SE 06:40:58 10° E daylight
26 Apr - 08:12:21 10° WSW 08:15:30 47° NW 08:18:40 10° NE daylight
26 Apr - 14:42:24 10° NW 14:45:35 49° NE 14:48:47 10° ESE daylight
26 Apr - 16:20:13 10° W 16:21:43 13° SW 16:23:13 10° SSW daylight
27 Apr - 07:19:57 10° SW 07:23:12 80° SE 07:26:27 10° NE daylight
27 Apr - 08:58:15 10° WNW 09:00:02 14° NNW 09:01:49 10° N daylight
27 Apr - 13:50:21 10° NNW 13:53:12 26° NNE 13:56:02 10° E daylight
27 Apr - 15:26:50 10° WNW 15:29:37 26° SW 15:32:23 10° S daylight
28 Apr - 06:27:58 10° SSW 06:30:58 35° SE 06:33:59 10° ENE daylight
28 Apr - 08:04:55 10° W 08:07:31 21° NNW 08:10:06 10° NNE daylight
28 Apr - 12:58:31 10° NNW 13:00:42 16° NNE 13:02:53 10° ENE daylight
28 Apr - 14:34:12 10° NW 14:37:25 56° SW 14:40:38 10° SE daylight
29 Apr - 05:36:36 10° S 05:38:48 17° SE 05:41:01 10° E visible
29 Apr - 07:12:00 10° WSW 07:15:03 37° NW 07:18:08 10° NNE daylight
29 Apr - 12:07:08 10° N 12:08:07 11° NNE 12:09:05 10° NE daylight
29 Apr - 13:41:52 10° NW 13:45:07 65° NE 13:48:22 10° ESE daylight
30 Apr - 06:19:26 10° SW 06:22:40 78° NW 06:25:56 10° NE daylight
30 Apr - 07:58:16 10° NW 07:59:37 12° NNW 08:00:58 10° N daylight
30 Apr - 12:49:43 10° NNW 12:52:43 32° NE 12:55:43 10° ESE daylight
30 Apr - 14:26:33 10° W 14:29:02 20° SW 14:31:31 10° S daylight
